Content
SEND FEEDBACK

Daily
Averages
Monthly
Summary
Switzerland

GENEVA, SWITZERLAND


Home > Europe > Switzerland
Elevation: 1364 feet     Latitude: 46 15N     Longitude: 006 08E

WEATHER
 
SELECT A DAY
Number of Records: 317,331;   Date Range: 7/1/96 - 12/20/14
 
SHARE

PRINT THIS DATA

[ ← Previous Day ]
WEATHER ALMANAC - JULY 1, 2013
[ Next Day → ]
[ °C ]   °F
We're sorry. There is no daily almanac available for Geneva, Switzerland on July 1, 2013.
WEATHER BY HOUR - JULY 1, 2013
[ °C ]   °F
Local TimeTemperatureDewpointHumidityBarometerVisibilityWind DirectionWind SpeedGust SpeedPrecipitationEventsConditions
12:20 AM55.4 °F51.8 °F88 %30.18 inWest (280°)1.2 mphClear
12:50 AM55.4 °F51.8 °F88 %30.15 inVariable2.3 mphClear
1:00 AM55.0 °F51.0 °F83 %30.17 inNNW (330°)1.2 mph
1:20 AM53.6 °F51.8 °F94 %30.15 inCalmClear
1:50 AM53.6 °F51.8 °F94 %30.15 inCalmClear
2:00 AM54.0 °F50.0 °F81 %30.17 in25.0 miNW (310°)1.2 mph
2:20 AM53.6 °F50.0 °F88 %30.15 inCalmClear
2:50 AM51.8 °F50.0 °F94 %30.15 inCalmClear
3:00 AM52.0 °F50.0 °F89 %30.16 inWSW (250°)1.2 mph
3:50 AM50.0 °F50.0 °F100 %30.15 inVariable1.2 mphClear
4:00 AM51.0 °F49.0 °F92 %30.15 inNorth1.2 mph
4:20 AM50.0 °F50.0 °F100 %30.12 inCalmClear
5:20 AM50.0 °F50.0 °F100 %30.12 inCalmClear
5:50 AM50.0 °F48.2 °F94 %30.12 inCalmClear
6:00 AM50.0 °F48.0 °F91 %30.16 inNW (310°)2.3 mph
6:20 AM50.0 °F48.2 °F94 %30.12 in6.2 miVariable1.2 mphPartly Cloudy
6:50 AM51.8 °F50.0 °F94 %30.12 in6.2 miCalmPartly Cloudy
7:00 AM52.0 °F49.0 °F88 %30.15 inENE (70°)1.2 mph
7:20 AM55.4 °F51.8 °F88 %30.12 in6.2 miCalmPartly Cloudy
7:50 AM59.0 °F53.6 °F82 %30.12 in6.2 miCalmPartly Cloudy
8:00 AM58.0 °F52.0 °F73 %30.14 in25.0 miNE (50°)1.2 mphScattered Clouds
8:20 AM60.8 °F53.6 °F77 %30.12 in6.2 miVariable1.2 mphPartly Cloudy
8:50 AM62.6 °F53.6 °F72 %30.15 in6.2 miCalmPartly Cloudy
9:00 AM60.0 °F51.0 °F65 %30.13 inEast (80°)2.3 mph
9:20 AM64.4 °F51.8 °F64 %30.15 in6.2 miVariable2.3 mphPartly Cloudy
9:50 AM66.2 °F53.6 °F64 %30.12 in6.2 miVariable2.3 mphPartly Cloudy
10:00 AM63.0 °F51.0 °F57 %30.12 inNNE (20°)3.5 mph
10:20 AM66.2 °F51.8 °F60 %30.12 in6.2 miNE (50°)5.8 mphPartly Cloudy
10:50 AM66.2 °F51.8 °F60 %30.12 in6.2 miENE (60°)6.9 mphPartly Cloudy
11:20 AM68.0 °F53.6 °F60 %30.12 in6.2 miNE (50°)8.1 mphPartly Cloudy
11:50 AM66.2 °F53.6 °F64 %30.12 in6.2 miEast (90°)6.9 mphPartly Cloudy
12:00 PM67.0 °F52.0 °F48 %30.09 inENE (70°)4.6 mph
12:20 PM69.8 °F53.6 °F56 %30.12 in6.2 miENE (60°)4.6 mphPartly Cloudy
12:50 PM69.8 °F51.8 °F53 %30.12 in6.2 miENE (70°)4.6 mphPartly Cloudy
1:00 PM70.0 °F53.0 °F44 %30.07 inENE (70°)3.5 mph
1:20 PM71.6 °F53.6 °F53 %30.09 in6.2 miEast (90°)5.8 mphPartly Cloudy
1:50 PM71.6 °F53.6 °F53 %30.09 in6.2 miEast (80°)5.8 mphPartly Cloudy
2:00 PM71.0 °F53.0 °F43 %30.05 in25.0 miENE (70°)5.8 mphScattered Clouds
2:20 PM73.4 °F53.6 °F50 %30.09 in6.2 miENE (60°)4.6 mphPartly Cloudy
2:50 PM75.2 °F51.8 °F44 %30.06 in6.2 miVariable3.5 mphPartly Cloudy
3:00 PM74.0 °F51.0 °F34 %30.03 inNorth (10°)3.5 mph
3:20 PM77.0 °F53.6 °F44 %30.06 in6.2 miVariable3.5 mphPartly Cloudy
3:50 PM77.0 °F53.6 °F44 %30.06 in6.2 miVariable3.5 mphPartly Cloudy
4:00 PM77.0 °F53.0 °F32 %30.00 inEast (100°)3.5 mph
4:20 PM78.8 °F55.4 °F44 %30.04 in6.2 miVariable4.6 mphPartly Cloudy
4:50 PM78.8 °F55.4 °F44 %30.04 in6.2 miVariable4.6 mphPartly Cloudy
5:20 PM80.6 °F55.4 °F42 %30.04 in6.2 miVariable3.5 mphPartly Cloudy
5:50 PM80.6 °F51.8 °F37 %30.04 in6.2 miSW (230°)5.8 mphPartly Cloudy
6:00 PM79.0 °F53.0 °F30 %29.96 inWSW (240°)3.5 mph
6:20 PM80.6 °F50.0 °F34 %30.01 in6.2 miSouth (190°)5.8 mphPartly Cloudy
6:50 PM80.6 °F53.6 °F39 %30.01 in6.2 miSW (220°)5.8 mphPartly Cloudy
7:00 PM80.0 °F52.0 °F27 %29.95 inSW (230°)8.1 mph
7:20 PM80.6 °F53.6 °F39 %30.01 in6.2 miSW (230°)6.9 mphPartly Cloudy
7:50 PM78.8 °F53.6 °F42 %30.01 in6.2 miWSW (240°)8.1 mphPartly Cloudy
8:00 PM78.0 °F52.0 °F29 %29.96 in37.0 miWSW (240°)6.9 mphScattered Clouds
8:20 PM77.0 °F51.8 °F41 %30.01 in6.2 miWSW (240°)5.8 mphPartly Cloudy
8:50 PM75.2 °F53.6 °F47 %30.04 in6.2 miWSW (250°)4.6 mphPartly Cloudy
9:00 PM69.0 °F56.0 °F53 %29.99 inWest (260°)4.6 mph
9:20 PM69.8 °F55.4 °F60 %30.04 inVariable1.2 mphClear
9:50 PM68.0 °F55.4 °F64 %30.04 in6.2 miVariable3.5 mphPartly Cloudy
10:00 PM66.0 °F56.0 °F63 %30.02 inNE (50°)2.3 mph
10:20 PM66.2 °F57.2 °F73 %30.06 in6.2 miVariable2.3 mphPartly Cloudy
10:50 PM64.4 °F57.2 °F77 %30.06 in6.2 miVariable1.2 mphPartly Cloudy
11:20 PM64.4 °F57.2 °F77 %30.06 in6.2 miCalmPartly Cloudy
11:50 PM64.4 °F57.2 °F77 %30.06 in6.2 miVariable1.2 mphPartly Cloudy
Hourly data recorded from LSGG, located miles away from Geneva, Switzerland







STORIES FROM OUR PARTNERS